Showing default

BILSAT 1, 27943

Orbit data source: Space-Track

BILSAT 1, 27943 is a payload satellite owned by TUBITAK-BILTEN (TR) in SSO that was launched on Sat, 27 Sep 2003 UTC via a KOSMOS 11K65M launch vehicle from the Plesetsk Missile And Space Complex (PKMTR). Payload-class satellites include a variety of spacecraft equipped with specific instruments for various scientific and technological missions. These include communications satellites like Starlink; space stations such as the ISS; scientific satellites like the Hubble; Earth observation satellites from companies like Planet Labs, Umbra, and HawkEye 360; GPS; miniature CubeSats for education and research; and military/defense satellites.

Loading next visibility...
Identifier
27943, 2003-042E
Orbit
SSO
Country
Flag of UnknownUnknown / TURK
Related business
Manufacturer
SSTL
Mission
Civil Imaging
Bus & Motor
SSTL-100, Unknown motor
Mass
100 kg wet, 100 kg dry
Launch date (UTC)
2003-09-27 (22 years ago)
Launch vehicle
KOSMOS 11K65M
Launch site
Plesetsk Missile And Space Complex (PKMTR)
Object type
Payload
Rocket body
Debris
Shape & HBR
Box + 1 Arm, 3.3 m
Radar Cross Section
0.540 m², Medium (>0.1 m² and < 1m²)

Expand to show TLE details & history
Last TLE update: 9 hours ago

TLE from 9 hours ago
0 BILSAT 1
1 27943U 03042E   25259.19851574  .00000395  00000-0  79993-4 0  9995
2 27943  98.3707  58.3167 0011860 126.7262 233.5032 14.66727762173954
Epoch: 2025-09-16T04:45Z
TLE epoch observation values (Epoch: 2025-09-16T04:45:51.759Z)
Latitude
-0.00008°
Longitude
-8.54121°
Altitude
679.503 km
Speed
7.514 km/s
True Right ascension
03h 53m 16s
True Declination
0° 00' 00"
Sunlit
Object was in full shadow at epoch
Visualization orbit readout
Latitude
Unknown
Longitude
Unknown
Altitude
Unknown
Speed
Unknown
Apparent Right ascension
Unknown
Apparent Declination
Unknown
Sunlit
N/A
Visualization observer readout
Local Sidereal Time
06:34:06
Azimuth
Unknown
Elevation
Unknown
Doppler factor
Unknown
Orbital elements
Apogee altitude
676.971 km
Perigee altitude
660.256 km
Semi-major axis
7,046.751 km
Eccentricity
0.00119
Inclination
98.3707°
RAAN
58.3167°
Arg. of periapsis
126.7262°
True anomaly
233.39404°
Mean anomaly
233.5032°
Eccentric anomaly
233.44861°
Mean motion
3.6691 °/min
Orbital period
98.12 mins
BSTAR
0.000079993
Loading maneuver chart data...
Computing Atmospheric mass density...
Loading historical data...
Loading historical data...
Loading historical data...
Loading historical data...
Loading historical data...
Loading historical data...
Loading historical data...

Documentation

Showing up to 5 results
|